Weather History for PAQT - September, 2012

Change the Weather History Date:

Thursday, September 27, 2012

  Actual Average (PAKU) Record (PAKU)
Temperature  
Mean Temperature 31 °F -  
Max Temperature 34 °F 30 °F 45 °F (1984)
Min Temperature 28 °F 24 °F 14 °F (1983)
Degree Days  
Heating Degree Days 34    
Moisture  
Dew Point 32 °F    
Average Humidity 100    
Maximum Humidity 100    
Minimum Humidity 100    
Precipitation  
Precipitation 0.21 in - - ()
Sea Level Pressure  
Sea Level Pressure 29.26 in    
Wind  
Wind Speed 10 mph (NNW)    
Max Wind Speed 20 mph    
Max Gust Speed 28 mph    
Visibility 4 miles    
Events Rain , Snow    
Averages and records for this station are not official NWS values.
T = Trace of Precipitation, MM = Missing Value Source: NWS Daily Summary

Daily Weather History Graph

Daily Weather History Graph

Search for Another Location

Airport or City:

Trip Planner

Search our weather history database for the weather conditions in past years. The results will help you decide how hot, cold, wet, or windy it might be!

Date:

Astronomy

Sep. 27, 2012 Rise Set
Actual Time 8:06 AM AKDT 7:40 PM AKDT
Civil Twilight 7:05 AM AKDT 8:41 PM AKDT
Nautical Twilight 5:49 AM AKDT 9:56 PM AKDT
Astronomical Twilight 4:14 AM AKDT 11:29 PM AKDT
Moon 6:50 PM AKDT (9/27) 4:51 AM AKDT (9/27)
Length of Visible Light 13h 36m
Length of Day
11h 33m
Waxing Gibbous, 94% of the Moon is Illuminated
Sep 27
Waxing Gibbous
Sep 29
Full
Oct 7
Last Quarter
Oct 15
New
Oct 21
First Quarter

Hourly Weather History & Observations

Time (AKDT) Temp. Windchill Dew Point Humidity Pressure Visibility Wind Dir Wind Speed Gust Speed Precip Events Conditions
12:53 AM 30.0 °F 23.2 °F 30.0 °F 100% 29.42 in 10.0 mi NNW 6.9 mph - N/A   Overcast
1:53 AM 28.9 °F 22.8 °F 28.9 °F 100% 29.40 in 10.0 mi NW 5.8 mph - N/A   Overcast
2:53 AM 30.9 °F 22.8 °F 30.9 °F 100% 29.37 in 10.0 mi NNW 9.2 mph - N/A   Overcast
3:02 AM 30.2 °F 22.6 °F 30.2 °F 100% 29.37 in 10.0 mi NNW 8.1 mph - N/A   Overcast
3:30 AM 30.2 °F 21.9 °F 30.2 °F 100% 29.35 in 8.0 mi North 9.2 mph - 0.00 in Snow Light Snow
3:53 AM 30.9 °F 24.3 °F 30.9 °F 100% 29.35 in 2.0 mi North 6.9 mph - 0.00 in Snow Light Snow
4:02 AM 30.2 °F 21.9 °F 30.2 °F 100% 29.34 in 5.0 mi NNW 9.2 mph - 0.00 in Snow Light Snow
4:12 AM 30.2 °F 21.3 °F 30.2 °F 100% 29.34 in 6.0 mi NNW 10.4 mph - 0.00 in Snow Light Snow
4:27 AM 30.2 °F 22.6 °F 30.2 °F 100% 29.34 in 2.0 mi North 8.1 mph - 0.00 in Snow Light Snow
4:45 AM 30.2 °F 25.4 °F 30.2 °F 100% 29.33 in 1.8 mi NNE 4.6 mph - 0.00 in Snow Light Snow
4:53 AM 30.9 °F 26.2 °F 30.9 °F 100% 29.33 in 1.0 mi NNE 4.6 mph - 0.00 in Snow Light Snow
5:00 AM 30.2 °F 26.7 °F 30.2 °F 100% 29.32 in 0.8 mi NE 3.5 mph - 0.00 in Snow Light Snow
5:23 AM 30.2 °F 24.3 °F 30.2 °F 100% 29.32 in 1.0 mi North 5.8 mph - 0.00 in Snow Light Snow
5:33 AM 30.2 °F 21.9 °F 30.2 °F 100% 29.31 in 1.2 mi North 9.2 mph - 0.00 in Snow Light Snow
5:53 AM 30.9 °F 21.7 °F 30.9 °F 100% 29.30 in 1.2 mi North 11.5 mph - 0.00 in Snow Light Snow
6:53 AM 30.9 °F 20.7 °F 30.9 °F 100% 29.27 in 1.2 mi North 13.8 mph - 0.00 in Snow Light Snow
7:25 AM 32.0 °F 21.2 °F 32.0 °F 100% 29.26 in 1.2 mi North 16.1 mph - 0.00 in Snow Light Snow
7:53 AM 30.9 °F 19.8 °F 30.9 °F 100% 29.26 in 1.5 mi NNW 16.1 mph 23.0 mph 0.00 in Snow Light Snow
8:28 AM 30.2 °F 18.9 °F 30.2 °F 100% 29.24 in 0.8 mi NNW 16.1 mph 26.5 mph 0.00 in Snow Light Snow
8:53 AM 30.9 °F 19.4 °F 30.9 °F 100% 29.24 in 0.8 mi NNW 17.3 mph 25.3 mph 0.00 in Snow Light Snow
9:00 AM 30.2 °F 18.5 °F 30.2 °F 100% 29.23 in 1.0 mi NNW 17.3 mph 27.6 mph 0.00 in Snow Light Snow
9:07 AM 30.2 °F 17.8 °F 30.2 °F 100% 29.23 in 0.8 mi NNW 19.6 mph 27.6 mph 0.00 in Snow Light Snow
9:16 AM 30.2 °F 18.1 °F 30.2 °F 100% 29.23 in 1.2 mi NNW 18.4 mph 26.5 mph 0.00 in Snow Light Snow
9:53 AM 32.0 °F 20.8 °F 32.0 °F 100% 29.23 in 1.0 mi NNW 17.3 mph 25.3 mph 0.00 in Snow Light Snow
10:23 AM 32.0 °F 22.5 °F 32.0 °F 100% 29.22 in 1.8 mi NNW 12.7 mph 20.7 mph 0.00 in Snow Light Snow
10:53 AM 32.0 °F 22.1 °F 32.0 °F 100% 29.22 in 2.0 mi NNW 13.8 mph 20.7 mph 0.00 in Snow Light Snow
11:02 AM 32.0 °F 23.6 °F 32.0 °F 100% 29.22 in 1.5 mi NNW 10.4 mph - 0.00 in Snow Light Snow
11:12 AM 32.0 °F 23.6 °F 32.0 °F 100% 29.22 in 1.2 mi North 10.4 mph - 0.00 in Snow Light Snow
11:30 AM 32.0 °F 25.6 °F 32.0 °F 100% 29.22 in 1.8 mi North 6.9 mph - 0.00 in Snow Light Snow
11:37 AM 32.0 °F 24.8 °F 32.0 °F 100% 29.22 in 2.0 mi North 8.1 mph - 0.00 in Snow Light Snow
11:53 AM 33.1 °F 26.9 °F 33.1 °F 100% 29.22 in 2.5 mi NNW 6.9 mph - 0.02 in Snow Light Snow
12:20 PM 33.8 °F 27.7 °F 33.8 °F 100% 29.22 in 2.0 mi NNW 6.9 mph - 0.03 in Snow Light Snow
12:37 PM 33.8 °F 27.0 °F 33.8 °F 100% 29.22 in 3.0 mi NNW 8.1 mph - 0.04 in Snow Light Snow
12:53 PM 33.1 °F 26.9 °F 33.1 °F 100% 29.22 in 4.0 mi NNW 6.9 mph - 0.05 in Snow Light Snow
1:09 PM 33.8 °F 26.4 °F 33.8 °F 100% 29.21 in 4.0 mi NNW 9.2 mph - 0.00 in Snow Light Snow
1:29 PM 33.8 °F 26.4 °F 33.8 °F 100% 29.22 in 8.0 mi NNW 9.2 mph - 0.01 in Snow Light Snow
1:37 PM 33.8 °F 26.4 °F 33.8 °F 100% 29.22 in 4.0 mi NNW 9.2 mph - 0.01 in Snow Light Snow
1:43 PM 33.8 °F 25.8 °F 33.8 °F 100% 29.22 in 2.5 mi NNW 10.4 mph - 0.01 in   Overcast
1:51 PM 33.8 °F 25.8 °F 33.8 °F 100% 29.22 in 8.0 mi NNW 10.4 mph - 0.01 in   Overcast
1:53 PM 34.0 °F 26.0 °F 34.0 °F 100% 29.22 in 10.0 mi NNW 10.4 mph - 0.01 in   Overcast
2:11 PM 33.8 °F 25.8 °F 33.8 °F 100% 29.22 in 10.0 mi North 10.4 mph - 0.00 in   Overcast
2:53 PM 33.1 °F 24.4 °F 33.1 °F 100% 29.23 in 3.0 mi NNW 11.5 mph - 0.02 in Snow Light Snow
3:04 PM 33.8 °F 25.8 °F 33.8 °F 100% 29.22 in 2.0 mi NNW 10.4 mph - 0.00 in Snow Light Snow
3:09 PM 33.8 °F 24.3 °F 33.8 °F 100% 29.22 in 1.8 mi NNW 13.8 mph 19.6 mph 0.01 in Snow Light Snow
3:29 PM 33.8 °F 24.8 °F 33.8 °F 100% 29.22 in 1.8 mi NNW 12.7 mph - 0.01 in Snow Light Snow
3:35 PM 33.8 °F 25.8 °F 33.8 °F 100% 29.22 in 2.0 mi NNW 10.4 mph - 0.01 in Snow Light Snow
3:48 PM 33.8 °F 24.8 °F 33.8 °F 100% 29.22 in 1.8 mi NNW 12.7 mph - 0.02 in Snow Light Snow
3:49 PM 33.1 °F 23.9 °F 33.1 °F 100% 29.23 in 1.8 mi NNW 12.7 mph - 0.02 in Snow Light Snow
3:56 PM 33.8 °F 24.3 °F 33.8 °F 100% 29.22 in 1.0 mi NNW 13.8 mph - 0.00 in Snow Light Snow
4:53 PM 33.1 °F 24.4 °F 33.1 °F 100% 29.24 in 2.5 mi North 11.5 mph - 0.03 in Snow Light Snow
5:01 PM 33.8 °F 26.4 °F 33.8 °F 100% 29.23 in 3.0 mi NNW 9.2 mph - 0.00 in Snow Light Snow
5:53 PM 34.0 °F 25.5 °F 34.0 °F 100% 29.24 in 7.0 mi North 11.5 mph - 0.01 in Rain Light Rain
6:53 PM 34.0 °F 26.0 °F 34.0 °F 100% 29.25 in 9.0 mi North 10.4 mph - 0.02 in Rain Light Rain
7:53 PM 34.0 °F 25.0 °F 34.0 °F 100% 29.26 in 9.0 mi North 12.7 mph - 0.01 in Rain Light Rain
8:53 PM 34.0 °F 25.5 °F 34.0 °F 100% 29.28 in 7.0 mi North 11.5 mph - 0.01 in Rain Light Rain
9:53 PM 34.0 °F 26.0 °F 34.0 °F 100% 29.30 in 5.0 mi North 10.4 mph - 0.01 in Rain Light Rain
10:53 PM 34.0 °F 26.0 °F 34.0 °F 100% 29.32 in 10.0 mi North 10.4 mph - 0.00 in   Overcast
11:53 PM 34.0 °F 26.0 °F 34.0 °F 100% 29.33 in 7.0 mi North 10.4 mph - N/A   Overcast